AAL437 KFSD-KMSP

Flight info

Callsign AAL437
Flight time N/A
Altitude 23000
Route SSWAN TORGY4
Aircraft B738/M-SDGIJ1LRWY/SB1

Departure

Time 2026-04-30 21:20
Airport Sioux Falls Regional Airport (KFSD)

Arrival

Time N/A
Airport Minneapolis–Saint Paul International Airport / Wold–Chamberlain Field (KMSP)
Time Latitude Longitude Altitude Speed Heading
2026-04-30 20:14 43.58014 -96.73364 1428 ft 0 kts 46°
2026-04-30 20:56 43.58014 -96.73365 1428 ft 1 kts 46°
2026-04-30 20:57 43.58004 -96.73380 1428 ft 2 kts 46°
2026-04-30 20:57 43.57994 -96.73394 1428 ft 2 kts 46°
2026-04-30 20:57 43.57987 -96.73413 1428 ft 2 kts 86°
2026-04-30 20:58 43.57992 -96.73439 1428 ft 1 kts 122°
2026-04-30 20:58 43.57993 -96.73441 1428 ft 0 kts 120°
2026-04-30 21:01 43.57965 -96.73381 1428 ft 4 kts 132°
2026-04-30 21:01 43.57967 -96.73366 1427 ft 4 kts 311°
2026-04-30 21:01 43.58029 -96.73552 1428 ft 0 kts 251°
2026-04-30 21:15 43.58022 -96.73569 1428 ft 5 kts 217°
2026-04-30 21:15 43.57959 -96.73569 1428 ft 13 kts 153°
2026-04-30 21:15 43.57845 -96.73495 1428 ft 21 kts 155°
2026-04-30 21:15 43.57711 -96.73410 1428 ft 20 kts 154°
2026-04-30 21:16 43.57581 -96.73327 1428 ft 20 kts 154°
2026-04-30 21:16 43.57454 -96.73245 1428 ft 19 kts 163°
2026-04-30 21:16 43.57396 -96.73244 1428 ft 0 kts 209°
2026-04-30 21:18 43.57394 -96.73246 1428 ft 3 kts 209°
2026-04-30 21:19 43.57352 -96.73308 1428 ft 9 kts 242°
2026-04-30 21:19 43.57351 -96.73338 1428 ft 2 kts 321°
2026-04-30 21:19 43.57430 -96.73395 1428 ft 40 kts 334°
2026-04-30 21:19 43.57892 -96.73695 1428 ft 104 kts 335°
2026-04-30 21:20 43.58713 -96.74218 1444 ft 155 kts 334°
2026-04-30 21:20 43.59665 -96.74806 2133 ft 149 kts 336°
2026-04-30 21:20 43.60741 -96.74931 2507 ft 172 kts 16°
2026-04-30 21:20 43.61711 -96.73843 2947 ft 189 kts 47°
2026-04-30 21:21 43.62537 -96.72387 3380 ft 204 kts 49°
2026-04-30 21:21 43.63428 -96.70792 3874 ft 216 kts 48°
2026-04-30 21:21 43.65494 -96.67472 4860 ft 243 kts 43°
2026-04-30 21:22 43.66695 -96.65736 5372 ft 257 kts 43°
2026-04-30 21:22 43.70567 -96.60258 7503 ft 272 kts 42°
2026-04-30 21:23 43.71881 -96.58392 8270 ft 274 kts 42°
2026-04-30 21:23 43.73204 -96.56523 9014 ft 277 kts 41°
2026-04-30 21:23 43.75904 -96.52694 10395 ft 285 kts 41°
2026-04-30 21:24 43.77329 -96.50674 10797 ft 300 kts 41°
2026-04-30 21:24 43.78812 -96.48566 11190 ft 315 kts 41°
2026-04-30 21:24 43.80381 -96.46331 11611 ft 329 kts 41°
2026-04-30 21:24 43.82001 -96.44027 12049 ft 342 kts 41°
2026-04-30 21:25 43.85329 -96.39265 13470 ft 351 kts 41°
2026-04-30 21:25 43.87036 -96.36816 14247 ft 354 kts 41°
2026-04-30 21:25 43.88751 -96.34359 14917 ft 359 kts 42°
2026-04-30 21:26 43.92247 -96.29356 16234 ft 369 kts 41°
2026-04-30 21:26 43.94042 -96.26785 16859 ft 375 kts 41°
2026-04-30 21:27 43.97707 -96.21536 18083 ft 385 kts 41°
2026-04-30 21:27 43.99599 -96.18824 18684 ft 390 kts 41°
2026-04-30 21:27 44.01489 -96.16110 19353 ft 394 kts 41°
2026-04-30 21:28 44.04166 -96.12265 20248 ft 399 kts 41°
2026-04-30 21:29 44.14700 -95.96754 23092 ft 420 kts 47°
2026-04-30 21:30 44.17861 -95.90094 23068 ft 420 kts 55°
2026-04-30 21:31 44.22118 -95.79394 23075 ft 422 kts 57°
2026-04-30 21:31 44.24909 -95.72214 23080 ft 419 kts 57°
2026-04-30 21:32 44.27688 -95.65077 23090 ft 420 kts 57°
2026-04-30 21:32 44.29080 -95.61510 23088 ft 420 kts 57°
2026-04-30 21:32 44.30470 -95.57944 23084 ft 420 kts 57°
2026-04-30 21:32 44.31864 -95.54363 23081 ft 418 kts 57°
2026-04-30 21:33 44.33250 -95.50801 23080 ft 420 kts 57°
2026-04-30 21:33 44.36034 -95.43642 23069 ft 418 kts 57°
2026-04-30 21:33 44.37410 -95.40095 23067 ft 419 kts 57°
2026-04-30 21:34 44.38788 -95.36540 23060 ft 418 kts 57°
2026-04-30 21:34 44.41553 -95.29391 23060 ft 419 kts 58°
2026-04-30 21:34 44.42825 -95.26099 23061 ft 418 kts 58°
2026-04-30 21:35 44.44138 -95.22688 23057 ft 402 kts 58°
2026-04-30 21:35 44.45385 -95.19236 23065 ft 393 kts 62°
2026-04-30 21:35 44.46425 -95.15707 23068 ft 397 kts 65°
2026-04-30 21:35 44.47355 -95.12035 23080 ft 399 kts 68°
2026-04-30 21:36 44.48103 -95.08857 23079 ft 399 kts 68°
2026-04-30 21:36 44.48944 -95.05182 23077 ft 399 kts 69°
2026-04-30 21:37 44.51439 -94.94121 23075 ft 399 kts 69°
2026-04-30 21:37 44.52295 -94.90401 23072 ft 398 kts 69°
2026-04-30 21:37 44.53141 -94.86736 23063 ft 396 kts 69°
2026-04-30 21:37 44.53986 -94.83080 23061 ft 396 kts 69°
2026-04-30 21:38 44.54838 -94.79385 23065 ft 397 kts 69°
2026-04-30 21:38 44.55680 -94.75729 23061 ft 397 kts 69°
2026-04-30 21:38 44.55835 -94.75058 23058 ft 396 kts 69°